Park Rapids, MN

8:19 AM CST on December 11, 2017 (GMT -0600)
Park Rapids Municipal

Weather History for KPKD - May, 2013

Change the Weather History Date:

Tuesday, May 28, 2013

  Actual Average Record
Temperature  
Mean Temperature 60 °F -  
Max Temperature 66 °F 73 °F 96 °F (2006)
Min Temperature 53 °F 48 °F 31 °F (1965)
Degree Days  
Heating Degree Days 6    
Growing Degree Days 10 (Base 50)    
Moisture  
Dew Point 53 °F    
Average Humidity 82    
Maximum Humidity 96    
Minimum Humidity 68    
Precipitation  
Precipitation 0.00 in - - ()
Sea Level Pressure  
Sea Level Pressure 29.74 in    
Wind  
Wind Speed 7 mph (SSE)    
Max Wind Speed 12 mph    
Max Gust Speed -    
Visibility 9 miles    
Events      
Averages and records for this station are not official NWS values.
T = Trace of Precipitation, MM = Missing Value Source: NWS Daily Summary

Daily Weather History Graph

Daily Weather History Graph

Search for Another Location

Airport or City:

Trip Planner

Search our weather history database for the weather conditions in past years. The results will help you decide how hot, cold, wet, or windy it might be!

Date:

Astronomy

May. 28, 2013 Rise Set
Actual Time 5:32 AM CDT 9:03 PM CDT
Civil Twilight 4:54 AM CDT 9:41 PM CDT
Nautical Twilight 4:03 AM CDT 10:32 PM CDT
Astronomical Twilight 2:57 AM CDT 11:39 PM CDT
Moon No Moon Rise 9:27 AM CDT (5/28)
Length of Visible Light 16h 47m
Length of Day
15h 31m
Waning Gibbous, 82% of the Moon is Illuminated
May 28
Waning Gibbous
May 31
Last Quarter
Jun 8
New
Jun 16
First Quarter
Jun 23
Full

Hourly Weather History & Observations

Time (CDT) Temp. Dew Point Humidity Pressure Visibility Wind Dir Wind Speed Gust Speed Precip Events Conditions
12:00 AM 57.2 °F 51.8 °F 82% 29.84 in 10.0 mi SE 10.4 mph - N/A   Overcast
12:53 AM 55.9 °F 51.1 °F 84% 29.83 in 10.0 mi ESE 6.9 mph - N/A   Overcast
1:53 AM 55.9 °F 51.1 °F 84% 29.80 in 10.0 mi ESE 6.9 mph - N/A   Overcast
2:49 AM 55.4 °F 51.8 °F 88% 29.80 in 10.0 mi SSE 4.6 mph - N/A   Overcast
2:53 AM 55.9 °F 51.1 °F 84% 29.81 in 10.0 mi SSE 3.5 mph - N/A   Overcast
3:53 AM 55.0 °F 51.1 °F 86% 29.79 in 10.0 mi SSE 9.2 mph - N/A   Overcast
4:38 AM 53.6 °F 51.8 °F 94% 29.76 in 10.0 mi SE 6.9 mph - N/A   Overcast
4:53 AM 54.0 °F 52.0 °F 93% 29.78 in 9.0 mi SE 6.9 mph - N/A   Overcast
5:53 AM 54.0 °F 51.1 °F 90% 29.78 in 10.0 mi SSE 6.9 mph - N/A   Overcast
6:36 AM 53.6 °F 51.8 °F 94% 29.75 in 2.5 mi SE 4.6 mph - N/A   Overcast
6:49 AM 53.6 °F 51.8 °F 94% 29.75 in 2.0 mi SE 6.9 mph - N/A   Overcast
6:53 AM 53.1 °F 52.0 °F 96% 29.76 in 2.5 mi SE 6.9 mph - N/A   Overcast
7:22 AM 53.6 °F 51.8 °F 94% 29.74 in 4.0 mi SE 9.2 mph - N/A   Overcast
7:53 AM 54.0 °F 52.0 °F 93% 29.74 in 3.0 mi SE 8.1 mph - N/A   Overcast
8:23 AM 53.6 °F 51.8 °F 94% 29.73 in 10.0 mi SE 10.4 mph - N/A   Overcast
8:53 AM 54.0 °F 51.1 °F 90% 29.74 in 8.0 mi ESE 8.1 mph - N/A   Overcast
9:53 AM 57.0 °F 52.0 °F 83% 29.74 in 10.0 mi SE 4.6 mph - N/A   Overcast
10:09 AM 57.2 °F 51.8 °F 82% 29.73 in 10.0 mi SSE 3.5 mph - N/A   Overcast
10:53 AM 59.0 °F 53.1 °F 81% 29.73 in 10.0 mi SE 5.8 mph - N/A   Overcast
11:37 AM 60.8 °F 53.6 °F 77% 29.73 in 10.0 mi SE 5.8 mph - N/A   Overcast
11:53 AM 61.0 °F 53.1 °F 75% 29.74 in 10.0 mi SSE 5.8 mph - N/A   Overcast
12:53 PM 63.0 °F 54.0 °F 72% 29.73 in 10.0 mi SSW 5.8 mph - N/A   Overcast
1:53 PM 63.0 °F 54.0 °F 72% 29.72 in 10.0 mi South 4.6 mph - N/A   Overcast
2:53 PM 64.9 °F 54.0 °F 68% 29.71 in 10.0 mi South 5.8 mph - N/A   Overcast
3:53 PM 64.9 °F 54.0 °F 68% 29.72 in 10.0 mi SSW 10.4 mph - N/A   Overcast
4:08 PM 64.4 °F 53.6 °F 68% 29.72 in 10.0 mi SW 11.5 mph - N/A   Overcast
4:28 PM 66.2 °F 55.4 °F 68% 29.71 in 10.0 mi South 10.4 mph - N/A   Overcast
4:53 PM 66.0 °F 55.0 °F 68% 29.71 in 10.0 mi South 9.2 mph - N/A   Scattered Clouds
5:53 PM 64.9 °F 54.0 °F 68% 29.71 in 10.0 mi SSW 9.2 mph - N/A   Overcast
6:01 PM 64.4 °F 55.4 °F 73% 29.70 in 10.0 mi SSW 8.1 mph - N/A   Overcast
6:17 PM 64.4 °F 55.4 °F 73% 29.70 in 10.0 mi South 9.2 mph - N/A   Overcast
6:53 PM 64.0 °F 55.0 °F 73% 29.71 in 10.0 mi South 9.2 mph - N/A   Overcast
7:40 PM 62.6 °F 55.4 °F 77% 29.71 in 10.0 mi South 8.1 mph - N/A   Overcast
8:27 PM 62.6 °F 55.4 °F 77% 29.69 in 10.0 mi SSE 8.1 mph - N/A   Scattered Clouds
9:53 PM 57.0 °F 53.1 °F 87% 29.72 in 10.0 mi South 3.5 mph - N/A   Partly Cloudy
11:53 PM 54.0 °F 52.0 °F 93% 29.71 in 9.0 mi SSE 5.8 mph - N/A   Clear